Regional Weather Roundup
Issued by NWS

Home | Current Version | Previous Version | Text Only | Print | Product List | Glossary On
Versions: 1 2 3 4 5 6 7 8 9 10 11 12 13 14 15 16 17 18 19 20 21 22 23 24 25 26 27 28 29 30 31 32 33 34 35 36 37 38 39 40 41 42 43 44 45 46 47 48 49 50
000
ASUS44 KFWD 011715
RWRTX
NORTH TEXAS HOURLY WEATHER ROUNDUP
NATIONAL WEATHER SERVICE FORT WORTH TX
1200 PM CDT SAT OCT 01 2016

NOTE: "FAIR" INDICATES FEW OR NO CLOUDS BELOW 12,000 FEET WITH NO
SIGNIFICANT WEATHER AND/OR OBSTRUCTIONS TO VISIBILITY.

TXZ118-119-011800-
DALLAS/FORT WORTH METROPLEX

CITY           SKY/WX    TMP DP  RH WIND       PRES   REMARKS
DFW AIRPORT    PTSUNNY   79  49  34 SW8       30.10S
DALLAS LOVE    PTSUNNY   79  52  38 VRB6      30.10F
FTW MEACHAM    SUNNY     78  52  40 S9        30.10F
DAL-EXECUTIVE  SUNNY     78  53  41 VRB6      30.10S
FTW-ALLIANCE   PTSUNNY   78  52  40 S5        30.10F
FTW-NAS-JRB    MOSUNNY   78  51  38 S7        30.11F
FTW-SPINKS     SUNNY     79  52  38 S7        30.12F
ARLINGTON      MOSUNNY   78  52  40 SW7       30.11S
GRAND PRAIRIE  SUNNY     77  50  38 SW6       30.12F
ADDISON        SUNNY     75  52  43 SW6       30.11F
MESQUITE       SUNNY     79  50  36 S8        30.11F
LANCASTER      SUNNY     79  50  36 SW6       30.12S
$$

TXZ091>094-102>105-117-120-121-131>134-011800-
NORTH CENTRAL TEXAS

CITY           SKY/WX    TMP DP  RH WIND       PRES   REMARKS
SHRMAN/DENISON SUNNY     76  51  41 SW5       30.12F
GAINESVILLE      N/A     75  52  44 SW5       30.13F
BOWIE          MOSUNNY   76  54  44 S7        30.12F
BRIDGEPORT     SUNNY     75  54  47 CALM      30.13F
DECATUR        SUNNY     76  49  38 S7        30.12F
DENTON         SUNNY     77  52  41 VRB6      30.10F
MCKINNEY       SUNNY     76  54  46 S5        30.11F
GREENVILLE       N/A     79  52  38 CALM      30.11F
ROCKWALL       SUNNY     77  56  47 S5        30.10F
TERRELL        SUNNY     78  53  41 SW6       30.11F
WAXAHACHIE     MOSUNNY   75  55  48 SW3       30.12F
CLEBURNE       MOSUNNY   75  52  43 S7        30.13S
GRANBURY       MOSUNNY   77  54  43 S6        30.12S
$$

TXZ083>090-098>101-113>116-127>130-139>142-154-155-011800-
WESTERN NORTH TEXAS

CITY           SKY/WX    TMP DP  RH WIND       PRES   REMARKS
WICHITA FALLS  PTSUNNY   71  55  56 SE6       30.10F
WF-KICKAPOO    PTSUNNY   74  52  46 S8        30.12F
VERNON         SUNNY     77  45  31 S8        30.10F
ABILENE        SUNNY     77  53  43 S9        30.11F
ABILENE-DYESS  SUNNY     79  55  43 S8        30.09F
CISCO          SUNNY     77  50  38 SW10      30.12F
BRECKENRIDGE   SUNNY     80  50  35 S6        30.10F HAZE
GRAHAM         SUNNY     77  53  42 SE5       30.09F
MINERAL WELLS  SUNNY     77  52  41 VRB3      30.10F
STEPHENVILLE   MOSUNNY   77  49  37 SE6       30.14F
COMANCHE       SUNNY     76  54  44 S5        30.12F
BROWNWOOD      SUNNY     75  54  46 SW9       30.12F
COLEMAN        SUNNY     76  55  47 S6        30.12F
$$

TXZ143>147-156>162-174-175-011800-
CENTRAL TEXAS

CITY           SKY/WX    TMP DP  RH WIND       PRES   REMARKS
WACO           CLOUDY    74  57  55 S6        30.12S
WACO-MCGREGOR  CLOUDY    76  56  49 SE7       30.12S
HILLSBORO      MOSUNNY   76  54  46 SW5       30.12S
CORSICANA      CLOUDY    78  53  41 VRB5      30.12F
MEXIA          CLOUDY    71  56  60 CALM      30.12S
HEARNE         CLOUDY    70  59  68 CALM      30.13S
CAMERON        CLOUDY    70  61  72 E3        30.11F
TEMPLE         CLOUDY    74  55  51 S10       30.13S
KILLEEN        CLOUDY    73  56  56 VRB6      30.12S
KILLEEN-SKYLRK CLOUDY    73  55  53 SW7       30.13R
FORT HOOD      CLOUDY    73  54  52 SW6       30.10S
GATESVILLE     CLOUDY    73  54  49 CALM      30.14F
HAMILTON       MOSUNNY   78  52  40 SW6       30.14S
LAMPASAS       CLOUDY    76  57  51 S7        30.12F
$$

TXZ095>097-106>112-122>126-135>138-148>153-164>167-011800-
EAST TEXAS

CITY           SKY/WX    TMP DP  RH WIND       PRES   REMARKS
PARIS          SUNNY     79  52  38 SW6       30.11F
SULPHUR SPRNGS SUNNY     79  48  33 CALM      30.12F
MOUNT PLEASANT MOSUNNY   80  51  37 S8        30.12S
GILMER         MOSUNNY   75  53  46 SW3       30.11F
MINEOLA        MOSUNNY   77  55  47 S3        30.11F
TYLER          MOSUNNY   78  54  43 VRB6      30.11F
LONGVIEW       MOSUNNY   78  53  41 VRB6      30.11S
MARSHALL       MOSUNNY   76  53  44 CALM      30.13F
ATHENS         CLOUDY    73  54  49 SW5       30.11S
PALESTINE      CLOUDY    75  58  54 SW3       30.13F
JACKSONVILLE   MOSUNNY   76  55  47 S3        30.14F
HENDERSON      PTSUNNY   76  57  51 CALM      30.13S
CENTER         SUNNY     78  53  41 S3        30.12F
NACOGDOCHES    PTSUNNY   75  55  50 S3        30.11F
LUFKIN         SUNNY     78  52  40 VRB3      30.11F
$$

SUPPLEMENTAL OBSERVATIONS (CENTRAL)

CITY           SKY/WX    TMP DP  RH WIND       PRES   REMARKS
CADDO GRASSLND   N/A     81  52  36 SW5         N/A
PAT MAYSE LAKE   N/A     75  48  38 SW3         N/A
GREENVILLE       N/A     81  50  34 SW6         N/A
LAKE LIMESTONE   N/A     79  59  50 W5          N/A
MCGREGOR         N/A     79  59  50 S5          N/A
$$

SUPPLEMENTAL OBSERVATIONS (WEST)

CITY           SKY/WX    TMP DP  RH WIND       PRES   REMARKS
MILLERS CREEK    N/A     79  55  44 S6          N/A
COMANCHE         N/A     79  54  41 S7          N/A
HAMBY            N/A     79  52  38 S9          N/A
IVIE RESERVOIR   N/A     79  55  44 SW8         N/A
COLORADO BEND    N/A     73  55  53 SW6         N/A
$$

SUPPLEMENTAL OBSERVATIONS (EAST)

CITY           SKY/WX    TMP DP  RH WIND       PRES   REMARKS
CLARKSVILLE      N/A     81  52  36 SW3         N/A
CADDO LAKE       N/A     81  54  39 S3          N/A
GILMER           N/A     79  54  41 W5          N/A
HENDERSON        N/A     81  57  44 SW5         N/A
LUFKIN           N/A     81  55  41 MISG        N/A
S SABINE NF      N/A     79  54  41 S2          N/A
$$

SUPPLEMENTAL OBSERVATIONS ARE A COLLECTION OF AUTOMATED INSTRUMENTS
THAT ARE MAINTAINED BY A VARIETY OF FEDERAL AND STATE AGENCIES.
CERTAIN ELEMENTS...SUCH AS HUMIDITY VALUES AND SUSTAINED WIND
SPEEDS...MAY BE APPROXIMATED.




USA.gov is the U.S. government's official web portal to all federal, state and local government web resources and services.